DW9727 Weather Reports


time (UTC)temp
F
wind
direction
speed
knots
gust
knots
rain 1hr
in
rain 24hr
in
rain mn
in
humidity
%
barometer
mb
20260509003711 74 310 6.1 12.2 0.00 0.00 0.00 30 1004.6
20260509002711 74 302 7.8 12.2 0.00 0.00 0.00 28 1004.6
20260509001710 74 322 6.1 19.1 0.00 0.00 0.00 29 1004.7
20260508235710 74 312 13.0 22.6 0.00 0.00 0.00 27 1004.9
20260508234711 74 314 13.9 20.0 0.00 0.00 0.00 26 1004.8
20260508233710 75 298 7.0 17.4 0.00 0.00 0.00 25 1004.7
20260508232710 76 319 9.6 14.8 0.00 0.00 0.00 25 1004.7
20260508230710 77 305 11.3 17.4 0.00 0.00 0.00 25 1004.7
20260508224710 76 286 11.3 19.1 0.00 0.00 0.00 27 1004.9
20260508223710 77 294 9.6 19.1 0.00 0.00 0.00 26 1004.7
20260508221710 76 325 8.7 14.8 0.00 0.00 0.00 28 1004.6
20260508220711 77 309 10.4 19.1 0.00 0.00 0.00 28 1004.7
20260508215710 78 313 7.8 17.4 0.00 0.00 0.00 30 1004.7
20260508214710 78 301 10.4 17.4 0.00 0.00 0.00 31 1004.8
20260508213710 78 314 10.4 19.1 0.00 0.00 0.00 31 1004.7
20260508212710 78 0 7.0 17.4 0.00 0.00 0.00 30 1004.7
20260508211711 78 322 9.6 17.4 0.00 0.00 0.00 31 1004.8
20260508210711 79 300 8.7 19.1 0.00 0.00 0.00 30 1004.8
20260508205711 79 300 10.4 15.6 0.00 0.00 0.00 27 1004.9
20260508203711 77 294 7.8 15.6 0.00 0.00 0.00 32 1005.2
20260508202711 74 271 7.8 13.0 0.00 0.00 0.00 33 1005.3
20260508201710 74 9 6.1 10.4 0.00 0.00 0.00 33 1005.4
20260508194710 75 302 7.8 10.4 0.00 0.00 0.00 33 1005.8
20260508193710 78 304 5.2 13.0 0.00 0.00 0.00 28 1005.8
20260508192710 77 269 6.1 13.9 0.00 0.00 0.00 28 1005.9
20260508191710 76 288 8.7 17.4 0.00 0.00 0.00 30 1006.2
20260508190710 74 322 8.7 12.2 0.00 0.00 0.00 35 1006.4
20260508185710 74 313 5.2 14.8 0.00 0.00 0.00 31 1006.4
20260508184711 75 321 8.7 20.9 0.00 0.00 0.00 31 1006.5
20260508183711 76 251 7.0 13.9 0.00 0.00 0.00 33 1006.5
20260508182710 75 294 5.2 12.2 0.00 0.00 0.00 33 1006.5
20260508181711 74 327 11.3 21.7 0.00 0.00 0.00 34 1006.7
20260508180710 75 209 9.6 13.9 0.00 0.00 0.00 32 1006.7
20260508175711 74 326 5.2 10.4 0.00 0.00 0.00 40 1006.8
20260508174711 73 260 4.3 10.4 0.00 0.00 0.00 36 1006.8
20260508173710 73 234 4.3 8.7 0.00 0.00 0.00 34 1006.8
20260508170711 73 218 6.1 11.3 0.00 0.00 0.00 34 1007.5
20260508165711 74 221 5.2 11.3 0.00 0.00 0.00 34 1007.7
20260508164710 73 333 1.7 8.7 0.00 0.00 0.00 38 1007.7
20260508163710 72 223 6.1 12.2 0.00 0.00 0.00 36 1007.9
20260508162711 72 218 3.5 12.2 0.00 0.00 0.00 37 1007.8
20260508161711 71 221 2.6 10.4 0.00 0.00 0.00 35 1007.9
20260508160711 71 220 6.1 11.3 0.00 0.00 0.00 39 1008.0
20260508155711 70 246 5.2 11.3 0.00 0.00 0.00 40 1008.1
20260508154711 70 277 2.6 7.8 0.00 0.00 0.00 41 1008.1
20260508152710 68 248 5.2 8.7 0.00 0.00 0.00 41 1008.3
20260508151711 68 261 3.5 7.0 0.00 0.00 0.00 41 1008.3
20260508150710 67 272 4.3 7.8 0.00 0.00 0.00 42 1008.4
20260508145711 67 237 3.5 6.1 0.00 0.00 0.00 45 1008.4
20260508144710 66 218 4.3 6.1 0.00 0.00 0.00 47 1008.6
20260508142710 65 234 1.7 4.3 0.00 0.00 0.00 49 1008.6
20260508141710 64 258 1.7 5.2 0.00 0.00 0.00 53 1008.7
20260508140710 64 261 0.9 1.7 0.00 0.00 0.00 52 1008.6
20260508135710 64 246 0.9 2.6 0.00 0.00 0.00 53 1008.6
20260508133710 62 217 0.0 2.6 0.00 0.00 0.00 55 1008.5
20260508131710 59 86 0.0 0.9 0.00 0.00 0.00 62 1008.5
20260508125710 55 121 0.0 0.0 0.00 0.00 0.00 66 1008.4
20260508124710 54 121 0.0 0.0 0.00 0.00 0.00 68 1008.4
20260508123710 53 121 0.0 0.0 0.00 0.00 0.00 69 1008.4
20260508122710 53 109 0.0 0.0 0.00 0.00 0.00 70 1008.2
20260508121710 53 109 0.0 0.0 0.00 0.00 0.00 69 1008.2
20260508120710 53 109 0.0 0.0 0.00 0.00 0.00 67 1008.0
20260508115710 53 109 0.0 0.0 0.00 0.00 0.00 67 1008.1
20260508114710 53 109 0.0 0.0 0.00 0.00 0.00 65 1008.2
20260508113710 53 109 0.0 0.0 0.00 0.00 0.00 64 1008.2
20260508112711 53 109 0.0 0.0 0.00 0.00 0.00 63 1008.1
20260508111710 53 109 0.0 1.7 0.00 0.00 0.00 64 1008.1
20260508110710 53 107 0.0 1.7 0.00 0.00 0.00 63 1008.1
20260508105710 53 99 0.0 0.9 0.00 0.00 0.00 62 1008.5
20260508104710 53 98 0.0 2.6 0.00 0.00 0.00 60 1008.4
20260508103710 53 157 0.9 5.2 0.00 0.00 0.00 60 1008.5
20260508101710 54 175 1.7 2.6 0.00 0.00 0.00 54 1008.9
20260508100710 54 130 2.6 6.1 0.00 0.00 0.00 55 1009.3
20260508095711 55 329 2.6 8.7 0.00 0.00 0.00 47 1009.6
20260508094711 53 65 3.5 7.8 0.00 0.00 0.00 54 1009.4
20260508093711 53 53 1.7 2.6 0.00 0.00 0.00 53 1009.5
20260508092711 53 65 0.0 0.0 0.00 0.00 0.00 49 1009.3
20260508091710 54 65 0.0 1.7 0.00 0.00 0.00 47 1009.0
20260508090710 54 73 0.0 2.6 0.00 0.00 0.00 45 1009.0
20260508085710 54 107 0.0 1.7 0.00 0.00 0.00 44 1009.0
20260508084710 54 140 0.9 2.6 0.00 0.00 0.00 44 1009.0
20260508083711 54 121 0.9 2.6 0.00 0.00 0.00 43 1009.1
20260508082710 54 26 0.9 2.6 0.00 0.00 0.00 44 1008.9
20260508081710 54 61 1.7 4.3 0.00 0.00 0.00 43 1009.0
20260508080710 54 68 0.9 4.3 0.00 0.00 0.00 45 1008.9
20260508075711 54 34 1.7 4.3 0.00 0.00 0.00 45 1009.0
20260508072710 55 38 0.0 1.7 0.00 0.00 0.00 42 1009.4
20260508071710 55 38 1.7 2.6 0.00 0.00 0.00 42 1009.2
20260508070710 55 134 0.0 1.7 0.00 0.00 0.00 39 1009.4
20260508064710 56 96 0.9 2.6 0.00 0.00 0.00 40 1009.2
20260508063710 56 160 1.7 2.6 0.00 0.00 0.00 37 1009.8
20260508062710 56 55 0.9 5.2 0.00 0.00 0.00 39 1009.4
20260508054710 57 105 1.7 4.3 0.00 0.00 0.00 36 1009.2
20260508053711 56 71 1.7 2.6 0.00 0.00 0.00 37 1009.2
20260508052710 56 68 0.9 2.6 0.00 0.00 0.00 37 1009.2
20260508051711 56 79 1.7 2.6 0.00 0.00 0.00 39 1009.1
20260508050710 56 80 0.9 2.6 0.00 0.00 0.00 40 1009.3
20260508044710 56 49 0.9 2.6 0.00 0.00 0.00 36 1009.0
20260508043710 57 49 1.7 2.6 0.00 0.00 0.00 36 1009.2
20260508041711 57 110 0.0 0.0 0.00 0.00 0.00 36 1009.4
20260508040710 58 110 0.0 1.7 0.00 0.00 0.00 36 1009.4
20260508035711 58 68 0.0 1.7 0.00 0.00 0.00 34 1009.4
20260508033710 58 90 0.0 1.7 0.00 0.00 0.00 35 1009.4
20260508032711 58 86 0.9 1.7 0.00 0.00 0.00 36 1009.4
20260508030710 57 51 0.0 0.0 0.00 0.00 0.00 35 1009.3
20260508025710 57 48 0.0 2.6 0.00 0.00 0.00 36 1009.1
20260508024710 57 89 0.9 1.7 0.00 0.00 0.00 36 1009.2
20260508022711 58 98 0.9 1.7 0.00 0.00 0.00 37 1008.9
20260508021710 59 64 0.0 1.7 0.00 0.00 0.00 35 1008.9
20260508020710 60 64 0.0 2.6 0.00 0.00 0.00 33 1008.5
20260508015710 60 53 0.9 2.6 0.00 0.00 0.00 32 1008.6
20260508014710 61 46 0.9 2.6 0.00 0.00 0.00 30 1008.6
20260508013711 63 45 1.7 2.6 0.00 0.00 0.00 28 1008.5
20260508012710 64 55 0.9 4.3 0.00 0.00 0.00 28 1008.4
20260508011710 65 36 0.9 2.6 0.00 0.00 0.00 27 1008.4
20260508010710 66 24 0.9 2.6 0.00 0.00 0.00 25 1008.4
20260508005710 67 13 2.6 7.0 0.00 0.00 0.00 24 1008.3
20260508004710 68 314 1.7 7.8 0.00 0.00 0.00 28 1008.3